Location: Unspecified
(0.0000°N, 0.0000°E)
Time: 09:12:10
(UTC+00:00)

Hubble Space Telescope - Pass Details

Date: 06 June 2020
Orbit: 536 x 540 km, 28.5° (Epoch: 06 July)

Event Time Altitude Azimuth Distance (km) Brightness Sun altitude
Rises 18:56:32 0° 331° (NNW) 2,667 5.2 -13.3°
Reaches altitude 10° 19:00:02 10° 2° (N) 1,779 3.7 -14.1°
Maximum altitude 19:01:46 12° 27° (NNE) 1,637 3.2 -14.5°
Drops below altitude 10° 19:03:29 10° 52° (NE) 1,781 3.1 -14.9°
Enters shadow 19:03:50 - 56° (ENE) 1,839 3.2 -14.9°
